When you browse on this site, cookies collect data to enhance your experience and personalize the content and advertising you see.
Visit our Privacy Policy to learn more. By continuing to use the site, you agree to this use of cookies and data.
  • In Czech Republic
  • List of Countries
  • For 7 days
  • Water Temperature
  • Satellite Maps
  • Weather Map
  • Weather Widgets
  • user-avatar
    Login

    Hourly Weather Perth

    Today, 20 November, Tuesday

    Time Temperature Precipitation Wind Pressure Humidity
    00:00 +13°C° 0 mm 5 mps 764 mmHg 61%
    01:00 +12°C° 0 mm 5 mps 764 mmHg 63%
    02:00 +11°C° 0 mm 4 mps 764 mmHg 65%
    03:00 +10°C° 0 mm 4 mps 764 mmHg 66%
    04:00 +10°C° 0 mm 4 mps 764 mmHg 68%
    05:00 +10°C° 0 mm 4 mps 765 mmHg 70%
    06:00 +11°C° 0 mm 4 mps 765 mmHg 63%
    07:00 +13°C° 0 mm 5 mps 765 mmHg 55%
    08:00 +15°C° 0 mm 5 mps 765 mmHg 48%
    09:00 +18°C° 0 mm 4 mps 765 mmHg 43%
    10:00 +20°C° 0 mm 4 mps 764 mmHg 38%
    11:00 +22°C° 0 mm 4 mps 764 mmHg 32%
    12:00 +22°C° 0 mm 5 mps 764 mmHg 33%
    13:00 +23°C° 0 mm 5 mps 763 mmHg 33%
    14:00 +24°C° 0 mm 6 mps 762 mmHg 34%
    15:00 +23°C° 0 mm 6 mps 762 mmHg 36%
    16:00 +23°C° 0 mm 7 mps 762 mmHg 39%
    17:00 +22°C° 0 mm 7 mps 762 mmHg 42%
    18:00 +21°C° 0 mm 6 mps 762 mmHg 46%
    19:00 +19°C° 0 mm 6 mps 762 mmHg 50%
    20:00 +17°C° 0 mm 6 mps 762 mmHg 54%
    21:00 +16°C° 0 mm 5 mps 762 mmHg 56%
    22:00 +15°C° 0 mm 5 mps 762 mmHg 58%
    23:00 +15°C° 0 mm 5 mps 763 mmHg 60%

    Tomorrow, 21 November, Wednesday

    Time Temperature Precipitation Wind Pressure Humidity
    00:00 +14°C° 0 mm 5 mps 762 mmHg 65%
    01:00 +13°C° 0 mm 4 mps 762 mmHg 69%
    02:00 +13°C° 0 mm 4 mps 762 mmHg 73%
    03:00 +13°C° 0 mm 4 mps 761 mmHg 76%
    04:00 +12°C° 0 mm 4 mps 761 mmHg 78%
    05:00 +12°C° 0 mm 5 mps 761 mmHg 80%
    06:00 +14°C° 0 mm 5 mps 761 mmHg 72%
    07:00 +16°C° 0 mm 5 mps 761 mmHg 63%
    08:00 +17°C° 0 mm 5 mps 761 mmHg 55%
    09:00 +20°C° 0 mm 4 mps 761 mmHg 48%
    10:00 +22°C° 0 mm 3 mps 760 mmHg 41%
    11:00 +25°C° 0 mm 3 mps 760 mmHg 35%
    12:00 +27°C° 0 mm 3 mps 759 mmHg 32%
    13:00 +28°C° 0 mm 3 mps 758 mmHg 29%
    14:00 +30°C° 0 mm 3 mps 757 mmHg 26%
    15:00 +29°C° 0 mm 4 mps 757 mmHg 28%
    16:00 +28°C° 0 mm 5 mps 757 mmHg 31%
    17:00 +27°C° 0 mm 5 mps 756 mmHg 33%
    18:00 +25°C° 0 mm 5 mps 756 mmHg 39%
    19:00 +22°C° 0 mm 5 mps 756 mmHg 45%
    20:00 +20°C° 0 mm 5 mps 756 mmHg 51%
    21:00 +20°C° 0 mm 5 mps 756 mmHg 49%
    22:00 +21°C° 0 mm 6 mps 755 mmHg 46%
    23:00 +21°C° 0 mm 6 mps 755 mmHg 43%

    Day after tomorrow, 22 November, Thursday

    Time Temperature Precipitation Wind Pressure Humidity
    00:00 +20°C° 0 mm 6 mps 755 mmHg 44%
    01:00 +20°C° 0 mm 6 mps 754 mmHg 45%
    02:00 +19°C° 0 mm 6 mps 753 mmHg 46%
    03:00 +19°C° 0.1 mm 6 mps 754 mmHg 49%
    04:00 +17°C° 0.1 mm 6 mps 754 mmHg 52%
    05:00 +17°C° 0.1 mm 6 mps 754 mmHg 56%
    06:00 +17°C° 0.1 mm 6 mps 754 mmHg 57%
    07:00 +17°C° 0.1 mm 7 mps 754 mmHg 59%
    08:00 +17°C° 0.1 mm 8 mps 755 mmHg 60%
    09:00 +18°C° 0.1 mm 7 mps 755 mmHg 56%
    10:00 +21°C° 0.1 mm 7 mps 754 mmHg 52%
    11:00 +22°C° 0.1 mm 6 mps 754 mmHg 49%
    12:00 +24°C° 0 mm 6 mps 754 mmHg 43%
    13:00 +27°C° 0 mm 6 mps 753 mmHg 37%
    14:00 +29°C° 0 mm 6 mps 752 mmHg 32%
    15:00 +28°C° 0 mm 6 mps 752 mmHg 34%
    16:00 +27°C° 0 mm 7 mps 752 mmHg 35%
    17:00 +27°C° 0 mm 8 mps 752 mmHg 37%
    18:00 +24°C° 0 mm 7 mps 753 mmHg 45%
    19:00 +22°C° 0 mm 6 mps 754 mmHg 52%
    20:00 +20°C° 0 mm 6 mps 755 mmHg 60%
    21:00 +19°C° 0 mm 5 mps 755 mmHg 63%
    22:00 +17°C° 0 mm 5 mps 756 mmHg 66%
    23:00 +17°C° 0 mm 4 mps 756 mmHg 69%

    23 November, Friday

    Time Temperature Precipitation Wind Pressure Humidity
    00:00 +17°C° 0 mm 4 mps 756 mmHg 71%
    01:00 +15°C° 0 mm 4 mps 756 mmHg 73%
    02:00 +14°C° 0 mm 3 mps 756 mmHg 75%
    03:00 +14°C° 0 mm 3 mps 756 mmHg 78%
    04:00 +13°C° 0 mm 3 mps 757 mmHg 81%
    05:00 +13°C° 0 mm 3 mps 757 mmHg 84%
    06:00 +16°C° 0 mm 3 mps 757 mmHg 75%
    07:00 +18°C° 0 mm 3 mps 758 mmHg 67%
    08:00 +20°C° 0 mm 3 mps 758 mmHg 58%
    09:00 +22°C° 0 mm 3 mps 758 mmHg 51%
    10:00 +25°C° 0 mm 3 mps 758 mmHg 43%
    11:00 +27°C° 0 mm 3 mps 758 mmHg 35%
    12:00 +27°C° 0 mm 4 mps 758 mmHg 35%
    13:00 +27°C° 0 mm 5 mps 758 mmHg 35%
    14:00 +27°C° 0 mm 5 mps 757 mmHg 35%
    15:00 +27°C° 0 mm 6 mps 757 mmHg 39%
    16:00 +26°C° 0 mm 6 mps 758 mmHg 43%
    17:00 +24°C° 0 mm 6 mps 758 mmHg 46%
    18:00 +23°C° 0 mm 6 mps 758 mmHg 54%
    19:00 +21°C° 0 mm 5 mps 759 mmHg 62%
    20:00 +19°C° 0 mm 5 mps 759 mmHg 70%
    21:00 +19°C° 0 mm 4 mps 759 mmHg 73%
    22:00 +18°C° 0 mm 4 mps 760 mmHg 76%
    23:00 +18°C° 0 mm 3 mps 760 mmHg 79%

    24 November, Saturday

    Time Temperature Precipitation Wind Pressure Humidity
    00:00 +17°C° 0 mm 3 mps 760 mmHg 79%
    01:00 +17°C° 0 mm 3 mps 759 mmHg 79%
    02:00 +17°C° 0 mm 3 mps 759 mmHg 78%
    03:00 +16°C° 0 mm 3 mps 759 mmHg 79%
    04:00 +16°C° 0 mm 2 mps 759 mmHg 79%
    05:00 +16°C° 0 mm 2 mps 759 mmHg 79%
    06:00 +18°C° 0 mm 2 mps 760 mmHg 69%
    07:00 +20°C° 0 mm 2 mps 760 mmHg 59%
    08:00 +24°C° 0 mm 3 mps 760 mmHg 49%
    09:00 +25°C° 0 mm 3 mps 760 mmHg 45%
    10:00 +27°C° 0 mm 4 mps 760 mmHg 40%
    11:00 +28°C° 0 mm 4 mps 759 mmHg 36%
    12:00 +28°C° 0 mm 5 mps 759 mmHg 37%
    13:00 +28°C° 0 mm 5 mps 758 mmHg 39%
    14:00 +28°C° 0 mm 6 mps 758 mmHg 41%
    15:00 +27°C° 0 mm 6 mps 758 mmHg 47%
    16:00 +24°C° 0 mm 6 mps 758 mmHg 52%
    17:00 +23°C° 0 mm 6 mps 758 mmHg 57%
    18:00 +21°C° 0 mm 6 mps 758 mmHg 61%
    19:00 +19°C° 0 mm 5 mps 758 mmHg 65%
    20:00 +16°C° 0 mm 5 mps 759 mmHg 68%
    21:00 +16°C° 0 mm 5 mps 759 mmHg 70%
    22:00 +15°C° 0 mm 4 mps 759 mmHg 72%
    23:00 +14°C° 0 mm 4 mps 759 mmHg 74%

    25 November, Sunday

    Time Temperature Precipitation Wind Pressure Humidity
    00:00 +14°C° 0 mm 3 mps 759 mmHg 78%
    01:00 +14°C° 0 mm 3 mps 759 mmHg 81%
    02:00 +14°C° 0 mm 2 mps 758 mmHg 84%
    03:00 +14°C° 0 mm 2 mps 759 mmHg 84%
    04:00 +14°C° 0 mm 2 mps 759 mmHg 84%
    05:00 +14°C° 0 mm 2 mps 759 mmHg 83%
    06:00 +16°C° 0.1 mm 3 mps 759 mmHg 76%
    07:00 +17°C° 0.1 mm 3 mps 759 mmHg 69%
    08:00 +19°C° 0.1 mm 4 mps 760 mmHg 62%
    09:00 +21°C° 0 mm 4 mps 760 mmHg 54%
    10:00 +22°C° 0 mm 4 mps 759 mmHg 47%
    11:00 +25°C° 0 mm 4 mps 759 mmHg 39%
    12:00 +25°C° 0 mm 5 mps 759 mmHg 40%
    13:00 +24°C° 0 mm 6 mps 758 mmHg 40%
    14:00 +26°C° 0 mm 6 mps 758 mmHg 41%
    15:00 +24°C° 0 mm 7 mps 758 mmHg 42%
    16:00 +23°C° 0 mm 7 mps 758 mmHg 44%
    17:00 +22°C° 0 mm 7 mps 758 mmHg 45%
    18:00 +21°C° 0 mm 6 mps 759 mmHg 49%
    19:00 +19°C° 0 mm 6 mps 759 mmHg 52%
    20:00 +17°C° 0 mm 5 mps 760 mmHg 56%
    21:00 +16°C° 0 mm 5 mps 760 mmHg 57%
    22:00 +15°C° 0 mm 5 mps 760 mmHg 58%
    23:00 +15°C° 0 mm 5 mps 761 mmHg 59%
    Show more